User: anonymous   Login
Location: Syracuse
(43.0480°N, 76.1480°W)
Time: 02:20:33
(UTC-05:00)
Language:

Cosmos 1140 Rocket - Orbit

View from above orbital plane
View from above orbital plane
View from above satellite
View from above satellite

Ground track
Ground track

The orbit data is extracted from the following two-line orbital elements,

1 11574U 79089B   15060.15452567  .00000304  00000-0  10397-3 0  9998
2 11574 074.0717 327.5497 0014787 086.5008 273.7838 14.40411268856331
Epoch (UTC): 01 March 2015 03:42:31
Eccentricity: 0.0014787
inclination: 74.0717°
perigee height: 746 km
apogee height: 767 km
right ascension of ascending node: 327.5497°
argument of perigee: 86.5008°
revolutions per day: 14.40411268
mean anomaly at epoch: 273.7838°
orbit number at epoch: 85633

The dashed part of the orbit path shows where the satellite is in the earth's shadow,  

DLR